When you browse on this site, cookies collect data to enhance your experience and personalize the content and advertising you see.
Visit our Privacy Policy to learn more. By continuing to use the site, you agree to this use of cookies and data.
  • în România
  • Lista ţărilor
  • Pe 7 zile
  • Temperatura apei
  • Meteo pe hartă
  • Widget-uri
  • user-avatar
    Intrare

    Meteo pe oră la Natal

    Astăzi, 19 Septembrie, Joi

    Timp Temperatura Precipitaţii Vânt Presiune Umiditate
    00:00 +25°C° 0 mm 5 m/s 759 mmHg 86%
    01:00 +25°C° 0 mm 5 m/s 759 mmHg 87%
    02:00 +25°C° 0.1 mm 5 m/s 759 mmHg 87%
    03:00 +25°C° 0.1 mm 5 m/s 759 mmHg 87%
    04:00 +25°C° 0.1 mm 5 m/s 759 mmHg 86%
    05:00 +25°C° 0.1 mm 5 m/s 759 mmHg 86%
    06:00 +25°C° 0.1 mm 5 m/s 759 mmHg 85%
    07:00 +25°C° 0.1 mm 5 m/s 760 mmHg 84%
    08:00 +27°C° 0.1 mm 6 m/s 760 mmHg 76%
    09:00 +29°C° 0.1 mm 6 m/s 760 mmHg 68%
    10:00 +32°C° 0.1 mm 7 m/s 760 mmHg 59%
    11:00 +32°C° 0 mm 7 m/s 759 mmHg 59%
    12:00 +32°C° 0 mm 7 m/s 759 mmHg 58%
    13:00 +32°C° 0 mm 7 m/s 759 mmHg 57%
    14:00 +32°C° 0 mm 7 m/s 758 mmHg 59%
    15:00 +32°C° 0 mm 7 m/s 758 mmHg 60%
    16:00 +30°C° 0 mm 7 m/s 758 mmHg 62%
    17:00 +29°C° 0 mm 7 m/s 758 mmHg 67%
    18:00 +28°C° 0 mm 6 m/s 759 mmHg 71%
    19:00 +27°C° 0 mm 6 m/s 759 mmHg 76%
    20:00 +27°C° 0.1 mm 6 m/s 759 mmHg 79%
    21:00 +26°C° 0.1 mm 6 m/s 759 mmHg 81%
    22:00 +26°C° 0.1 mm 6 m/s 760 mmHg 83%
    23:00 +26°C° 0 mm 6 m/s 759 mmHg 84%

    Mâine, 20 Septembrie, Vineri

    Timp Temperatura Precipitaţii Vânt Presiune Umiditate
    00:00 +26°C° 0 mm 6 m/s 759 mmHg 85%
    01:00 +26°C° 0 mm 6 m/s 759 mmHg 86%
    02:00 +26°C° 0.1 mm 6 m/s 759 mmHg 86%
    03:00 +24°C° 0.1 mm 6 m/s 759 mmHg 86%
    04:00 +25°C° 0.1 mm 5 m/s 759 mmHg 86%
    05:00 +24°C° 0 mm 6 m/s 759 mmHg 83%
    06:00 +26°C° 0 mm 6 m/s 759 mmHg 81%
    07:00 +26°C° 0 mm 6 m/s 760 mmHg 79%
    08:00 +27°C° 0 mm 6 m/s 760 mmHg 72%
    09:00 +29°C° 0 mm 7 m/s 760 mmHg 64%
    10:00 +30°C° 0 mm 7 m/s 761 mmHg 56%
    11:00 +30°C° 0 mm 7 m/s 760 mmHg 55%
    12:00 +32°C° 0 mm 7 m/s 760 mmHg 54%
    13:00 +32°C° 0 mm 7 m/s 760 mmHg 53%
    14:00 +32°C° 0 mm 7 m/s 759 mmHg 55%
    15:00 +30°C° 0 mm 7 m/s 759 mmHg 58%
    16:00 +30°C° 0 mm 7 m/s 759 mmHg 61%
    17:00 +29°C° 0 mm 6 m/s 759 mmHg 64%
    18:00 +28°C° 0 mm 6 m/s 759 mmHg 68%
    19:00 +27°C° 0 mm 6 m/s 760 mmHg 72%
    20:00 +27°C° 0 mm 5 m/s 760 mmHg 74%
    21:00 +26°C° 0 mm 5 m/s 760 mmHg 76%
    22:00 +26°C° 0 mm 5 m/s 761 mmHg 79%
    23:00 +26°C° 0.2 mm 5 m/s 760 mmHg 81%

    Poimâine, 21 Septembrie, Sâmbătă

    Timp Temperatura Precipitaţii Vânt Presiune Umiditate
    00:00 +26°C° 0.2 mm 4 m/s 760 mmHg 84%
    01:00 +25°C° 0.2 mm 4 m/s 759 mmHg 86%
    02:00 +25°C° 0.2 mm 4 m/s 759 mmHg 87%
    03:00 +25°C° 0.2 mm 4 m/s 759 mmHg 88%
    04:00 +25°C° 0.2 mm 4 m/s 759 mmHg 88%
    05:00 +25°C° 0.3 mm 4 m/s 759 mmHg 87%
    06:00 +26°C° 0.3 mm 4 m/s 760 mmHg 86%
    07:00 +26°C° 0.3 mm 4 m/s 760 mmHg 85%
    08:00 +27°C° 0.2 mm 5 m/s 760 mmHg 79%
    09:00 +28°C° 0.2 mm 5 m/s 760 mmHg 73%
    10:00 +29°C° 0.2 mm 5 m/s 761 mmHg 68%
    11:00 +30°C° 0.1 mm 6 m/s 760 mmHg 65%
    12:00 +30°C° 0.1 mm 6 m/s 760 mmHg 63%
    13:00 +32°C° 0.1 mm 6 m/s 759 mmHg 61%
    14:00 +30°C° 0 mm 6 m/s 759 mmHg 62%
    15:00 +30°C° 0 mm 6 m/s 759 mmHg 64%
    16:00 +29°C° 0 mm 6 m/s 758 mmHg 65%
    17:00 +28°C° 0 mm 6 m/s 759 mmHg 68%
    18:00 +28°C° 0 mm 5 m/s 759 mmHg 71%
    19:00 +27°C° 0 mm 5 m/s 759 mmHg 74%
    20:00 +26°C° 0 mm 5 m/s 759 mmHg 76%
    21:00 +26°C° 0 mm 5 m/s 760 mmHg 78%
    22:00 +26°C° 0 mm 4 m/s 760 mmHg 79%
    23:00 +26°C° 0 mm 5 m/s 760 mmHg 80%

    22 Septembrie, Duminică

    Timp Temperatura Precipitaţii Vânt Presiune Umiditate
    00:00 +26°C° 0 mm 5 m/s 759 mmHg 80%
    01:00 +26°C° 0 mm 5 m/s 759 mmHg 80%
    02:00 +26°C° 0 mm 5 m/s 759 mmHg 82%
    03:00 +26°C° 0 mm 5 m/s 759 mmHg 83%
    04:00 +25°C° 0 mm 5 m/s 759 mmHg 84%
    05:00 +26°C° 0.1 mm 5 m/s 759 mmHg 84%
    06:00 +26°C° 0.1 mm 5 m/s 759 mmHg 84%
    07:00 +26°C° 0.1 mm 5 m/s 760 mmHg 84%
    08:00 +27°C° 0.3 mm 5 m/s 760 mmHg 79%
    09:00 +28°C° 0.3 mm 5 m/s 760 mmHg 74%
    10:00 +29°C° 0.3 mm 5 m/s 761 mmHg 70%
    11:00 +30°C° 0.1 mm 5 m/s 760 mmHg 66%
    12:00 +30°C° 0.1 mm 6 m/s 760 mmHg 63%
    13:00 +32°C° 0.1 mm 6 m/s 759 mmHg 60%
    14:00 +32°C° 0 mm 6 m/s 759 mmHg 61%
    15:00 +30°C° 0 mm 6 m/s 759 mmHg 62%
    16:00 +30°C° 0 mm 6 m/s 758 mmHg 63%
    17:00 +29°C° 0 mm 5 m/s 759 mmHg 68%
    18:00 +28°C° 0 mm 5 m/s 759 mmHg 73%
    19:00 +26°C° 0 mm 5 m/s 760 mmHg 79%
    20:00 +26°C° 0 mm 5 m/s 760 mmHg 80%
    21:00 +26°C° 0 mm 5 m/s 760 mmHg 81%
    22:00 +26°C° 0 mm 5 m/s 761 mmHg 82%
    23:00 +26°C° 0 mm 5 m/s 760 mmHg 82%

    23 Septembrie, Luni

    Timp Temperatura Precipitaţii Vânt Presiune Umiditate
    00:00 +26°C° 0 mm 5 m/s 760 mmHg 81%
    01:00 +26°C° 0 mm 5 m/s 760 mmHg 81%
    02:00 +25°C° 0 mm 5 m/s 760 mmHg 82%
    03:00 +25°C° 0 mm 5 m/s 759 mmHg 82%
    04:00 +25°C° 0 mm 5 m/s 759 mmHg 83%
    05:00 +26°C° 0 mm 5 m/s 760 mmHg 82%
    06:00 +26°C° 0 mm 5 m/s 760 mmHg 82%
    07:00 +26°C° 0 mm 5 m/s 760 mmHg 82%
    08:00 +28°C° 0 mm 5 m/s 761 mmHg 75%
    09:00 +29°C° 0 mm 6 m/s 761 mmHg 68%
    10:00 +32°C° 0 mm 6 m/s 761 mmHg 60%
    11:00 +32°C° 0 mm 6 m/s 760 mmHg 60%
    12:00 +32°C° 0 mm 7 m/s 760 mmHg 59%
    13:00 +33°C° 0 mm 7 m/s 759 mmHg 58%
    14:00 +32°C° 0 mm 7 m/s 759 mmHg 60%
    15:00 +32°C° 0 mm 7 m/s 759 mmHg 61%
    16:00 +30°C° 0 mm 7 m/s 759 mmHg 63%
    17:00 +29°C° 0 mm 7 m/s 759 mmHg 67%
    18:00 +28°C° 0 mm 6 m/s 759 mmHg 72%
    19:00 +27°C° 0 mm 6 m/s 760 mmHg 77%
    20:00 +27°C° 0 mm 6 m/s 760 mmHg 78%
    21:00 +27°C° 0 mm 6 m/s 761 mmHg 79%
    22:00 +26°C° 0 mm 6 m/s 761 mmHg 80%
    23:00 +26°C° 0 mm 6 m/s 761 mmHg 79%

    24 Septembrie, Marţi

    Timp Temperatura Precipitaţii Vânt Presiune Umiditate
    00:00 +26°C° 0 mm 6 m/s 760 mmHg 79%
    01:00 +26°C° 0 mm 6 m/s 760 mmHg 79%
    02:00 +26°C° 0 mm 6 m/s 760 mmHg 81%
    03:00 +24°C° 0 mm 6 m/s 760 mmHg 82%
    04:00 +24°C° 0 mm 6 m/s 759 mmHg 84%
    05:00 +26°C° 0 mm 6 m/s 760 mmHg 82%
    06:00 +26°C° 0 mm 6 m/s 760 mmHg 80%
    07:00 +26°C° 0 mm 6 m/s 760 mmHg 77%
    08:00 +28°C° 0 mm 7 m/s 760 mmHg 71%
    09:00 +29°C° 0 mm 7 m/s 760 mmHg 66%
    10:00 +31°C° 0 mm 8 m/s 760 mmHg 60%
    11:00 +32°C° 0 mm 8 m/s 760 mmHg 58%
    12:00 +32°C° 0 mm 8 m/s 759 mmHg 57%
    13:00 +32°C° 0 mm 8 m/s 759 mmHg 55%
    14:00 +32°C° 0 mm 8 m/s 759 mmHg 57%
    15:00 +31°C° 0 mm 8 m/s 758 mmHg 59%
    16:00 +31°C° 0 mm 8 m/s 758 mmHg 61%
    17:00 +29°C° 0 mm 7 m/s 759 mmHg 65%
    18:00 +28°C° 0 mm 6 m/s 759 mmHg 70%
    19:00 +26°C° 0 mm 5 m/s 759 mmHg 74%
    20:00 +26°C° 0.1 mm 5 m/s 760 mmHg 77%
    21:00 +26°C° 0.1 mm 5 m/s 760 mmHg 80%
    22:00 +26°C° 0.1 mm 5 m/s 760 mmHg 83%
    23:00 +26°C° 0 mm 5 m/s 760 mmHg 83%
    Arată mai mult